Home   Weather   Albany   Past weeks

Flag for Australia Past Weather in Albany, Western Australia, Australia — Yesterday and Last 2 Weeks

Now
56 °F

Passing clouds.


Feels Like: 53 °F
Forecast: 55 / 66 °F
Wind: 12 mph from Northwest

Location: Albany Airport

Current Time: Jan 23, 2017 at 4:32:32 am

Latest Report: Jan 23, 2017 at 3:00 am


Visibility: N/A

Pressure: 29.88 "Hg

Humidity: 79%

Dew Point: 49 °F

Location of AlbanyLocation

Past Weather in Albany — Graph

°F

Albany Temperature Yesterday

Maximum temperature yesterday: 70 °F (at 11:00 am)
Minimum temperature yesterday: 52 °F (at 5:00 am)
Average temperature yesterday: 62 °F

High & Low Weather Summary for the Past Weeks

 TemperatureHumidityPressure
High82 °F (Jan 14, 2:00 pm)100% (Jan 15, 6:00 am)30.09 "Hg (Jan 15, 6:00 am)
Low47 °F (Jan 8, 5:00 am)27% (Jan 18, 12:00 pm)29.54 "Hg (Jan 12, 3:00 am)
Average63 °F69%29.88 "Hg
* Reported Jan 8 3:00 am — Jan 23 3:00 am, Albany, Weather by CustomWeather, © 2017

Note: Actual official high and low records may vary slightly from our data, if they occured in-between our weather recording intervals... More about our weather records

Advertising

Albany Weather History for the Previous 24 Hours

Scroll right to see more
 ConditionsComfort  
Time TempWeatherWind HumidityBarometerVisibility
3:00 am
Mon, Jan 23
56 °FPassing clouds.12 mph79%29.88 "HgN/A
2:00 am56 °FCool.10 mph82%29.88 "HgN/A
12:00 am56 °FCool.7 mph83%29.89 "HgN/A
11:00 pm
Sun, Jan 22
60 °FCool.9 mph76%29.89 "HgN/A
9:00 pm62 °FOvercast.6 mph61%29.89 "HgN/A
8:00 pm62 °FCool.8 mph61%29.88 "HgN/A
6:00 pm65 °FPassing clouds.17 mph50%29.84 "HgN/A
5:00 pm68 °FMild.16 mph47%29.81 "HgN/A
3:00 pm69 °FOvercast.18 mph38%29.83 "HgN/A
2:00 pm68 °FMild.20 mph47%29.82 "HgN/A
12:00 pm68 °FOvercast.20 mph55%29.82 "HgN/A
11:00 am70 °FMild.16 mph52%29.81 "HgN/A
9:00 am67 °FOvercast.16 mph59%29.82 "HgN/A
8:00 am62 °FCool.10 mph94%29.81 "HgN/A
6:00 am56 °FPassing clouds.6 mph94%29.81 "HgN/A
5:00 am52 °FCool.5 mph97%29.78 "HgN/A
Weather by CustomWeather, © 2017

See weather overviewHow to use our weather pages